Location: *
(58.7167°N, 26.1833°E)
Time: 09:11:48
(UTC+00:00)

Cosmos 1140 Rocket - Pass Details

Date: 25 August 2019
Orbit: 744 x 768 km, 74.1° (Epoch: 18 September)

Event Time Altitude Azimuth Distance (km) Brightness Sun altitude
Rises 21:16:42 0° 327° (NNW) 3,251 8.1 -19.6°
Reaches altitude 10° 21:19:11 10° 334° (NNW) 2,320 7.2 -19.7°
Maximum altitude 21:24:16 46° 48° (NE) 1,024 4.3 -19.8°
Enters shadow 21:27:23 22° 111° (ESE) 1,639 4.9 -19.9°
